Change the Weather History Date:

Monday, November 5, 2012

  Actual Average Record
Temperature  
Mean Temperature 62 °F -  
Max Temperature 69 °F 71 °F 83 °F (1981)
Min Temperature 54 °F 51 °F 28 °F (1991)
Degree Days  
Heating Degree Days 4    
Growing Degree Days 12 (Base 50)    
Moisture  
Dew Point 55 °F    
Average Humidity 77    
Maximum Humidity 94    
Minimum Humidity 47    
Precipitation  
Precipitation 0.03 in - - ()
Sea Level Pressure  
Sea Level Pressure 30.00 in    
Wind  
Wind Speed 6 mph (East)    
Max Wind Speed 13 mph    
Max Gust Speed 24 mph    
Visibility 10 miles    
Events Rain , Thunderstorm    
Averages and records for this station are not official NWS values.
T = Trace of Precipitation, MM = Missing Value Source: NWS Daily Summary

Daily Weather History Graph

Daily Weather History Graph

Search for Another Location

Airport or City:

Trip Planner

Search our weather history database for the weather conditions in past years. The results will help you decide how hot, cold, wet, or windy it might be!

Date:

Astronomy

Nov. 05, 2012 Rise Set
Actual Time 6:13 AM CST 5:04 PM CST
Civil Twilight 5:48 AM CST 5:29 PM CST
Nautical Twilight 5:20 AM CST 5:58 PM CST
Astronomical Twilight 4:51 AM CST 6:26 PM CST
Moon 10:41 PM CST (11/5) 11:32 AM CST (11/5)
Length of Visible Light 11h 40m
Length of Day
10h 50m
Waning Gibbous, 62% of the Moon is Illuminated
Nov 5
Waning Gibbous
Nov 6
Last Quarter
Nov 13
New
Nov 20
First Quarter
Nov 28
Full

Hourly Weather History & Observations

Time (CST) Temp. Dew Point Humidity Pressure Visibility Wind Dir Wind Speed Gust Speed Precip Events Conditions
12:55 AM 59.0 °F 57.2 °F 94% 30.08 in 10.0 mi NE 4.6 mph - N/A   Clear
1:55 AM 57.9 °F 56.3 °F 94% 30.07 in 10.0 mi NE 5.8 mph - N/A   Clear
2:55 AM 56.7 °F 54.3 °F 92% 30.07 in 10.0 mi NNE 6.9 mph - N/A   Clear
3:55 AM 55.8 °F 53.2 °F 91% 30.06 in 10.0 mi NE 8.1 mph - N/A   Clear
4:55 AM 54.5 °F 52.2 °F 92% 30.08 in 10.0 mi NE 6.9 mph - N/A   Clear
5:55 AM 54.1 °F 51.1 °F 89% 30.08 in 10.0 mi NE 6.9 mph - N/A   Overcast
6:55 AM 54.1 °F 50.5 °F 88% 30.09 in 10.0 mi ENE 4.6 mph - N/A   Overcast
7:55 AM 57.0 °F 49.8 °F 77% 30.08 in 10.0 mi East 6.9 mph - N/A   Clear
8:55 AM 60.8 °F 47.7 °F 62% 30.09 in 10.0 mi ENE 8.1 mph - N/A   Mostly Cloudy
9:55 AM 63.7 °F 47.1 °F 55% 30.08 in 10.0 mi SE 8.1 mph - N/A   Clear
10:55 AM 68.0 °F 48.6 °F 50% 30.06 in 10.0 mi South 5.8 mph - N/A   Clear
11:55 AM 68.7 °F 47.7 °F 47% 30.04 in 10.0 mi SSE 9.2 mph - N/A   Overcast
12:55 PM 68.7 °F 48.6 °F 49% 30.01 in 10.0 mi SSE 9.2 mph - N/A   Mostly Cloudy
1:55 PM 67.6 °F 51.8 °F 57% 29.99 in 10.0 mi SE 5.8 mph - N/A   Mostly Cloudy
2:55 PM 69.6 °F 53.8 °F 57% 29.97 in 10.0 mi SE 4.6 mph - N/A   Overcast
3:33 PM 68.0 °F 53.6 °F 60% 30.00 in 10.0 mi North 10.4 mph - N/A Thunderstorm Overcast
3:35 PM 68.0 °F 53.6 °F 60% 29.99 in 10.0 mi Variable 5.8 mph - N/A Thunderstorm Overcast
3:39 PM 68.0 °F 53.6 °F 60% 29.96 in 10.0 mi ESE 5.8 mph - N/A Rain Light Rain
3:48 PM 68.0 °F 53.6 °F 60% 29.98 in 10.0 mi East 3.5 mph - N/A   Overcast
3:55 PM 66.9 °F 53.2 °F 61% 29.96 in 10.0 mi ESE 8.1 mph - 0.00 in   Mostly Cloudy
4:15 PM 66.2 °F 55.4 °F 68% 29.97 in 10.0 mi SE 3.5 mph - N/A Rain , Thunderstorm Light Rain
4:55 PM 61.2 °F 57.7 °F 88% 29.96 in 8.0 mi ESE 4.6 mph - 0.03 in Rain Light Rain
5:02 PM 60.8 °F 57.2 °F 88% 29.96 in 10.0 mi ESE 5.8 mph - N/A   Mostly Cloudy
5:55 PM 62.4 °F 56.7 °F 81% 29.96 in 10.0 mi East 5.8 mph - 0.00 in   Overcast
6:55 PM 62.1 °F 56.3 °F 81% 29.96 in 10.0 mi ESE 4.6 mph - N/A   Overcast
7:55 PM 61.7 °F 56.1 °F 82% 29.95 in 10.0 mi SE 4.6 mph - N/A   Mostly Cloudy
8:55 PM 62.1 °F 57.9 °F 86% 29.95 in 10.0 mi SSE 3.5 mph - N/A   Mostly Cloudy
9:51 PM 66.2 °F 62.6 °F 88% 29.92 in 10.0 mi South 4.6 mph - N/A   Mostly Cloudy
9:55 PM 66.9 °F 62.8 °F 87% 29.92 in 10.0 mi South 3.5 mph - N/A   Mostly Cloudy
10:15 PM 66.2 °F 62.6 °F 88% 29.91 in 10.0 mi SSW 5.8 mph - N/A   Mostly Cloudy
10:55 PM 61.5 °F 57.9 °F 88% 29.94 in 10.0 mi NNW 11.5 mph 24.2 mph N/A   Scattered Clouds
10:58 PM 60.8 °F 57.2 °F 88% 29.94 in 10.0 mi NNW 11.5 mph - N/A   Mostly Cloudy
11:10 PM 59.0 °F 57.2 °F 94% 29.93 in 10.0 mi NNW 8.1 mph - N/A   Mostly Cloudy
11:13 PM 59.0 °F 57.2 °F 94% 29.93 in 10.0 mi NNW 6.9 mph - N/A   Mostly Cloudy
11:55 PM 59.4 °F 56.8 °F 91% 29.94 in 10.0 mi North 12.7 mph 17.3 mph N/A   Scattered Clouds